This demonstration page uses our WeatherBlox Daily Observations layout. Learn more.

Left ArrowRight Arrow

44.89941, -97.11507

Hourly Observations for June 13, 2016

Temp ( °F °C ) Dew Point ( °F °C ) Humidity (%) Winds ( mph kmh ) Pressure ( in mb ) Visibility ( mi km ) Precip ( " mm )
12:53 am 00:53 Clear 70 21.1 63 17.2 79 79 NNW 9 15 29.94 1014 10 16 0.00 0.00
1:53 am 01:53 Clear 68 20 61 16.1 78 78 NNW 9 15 29.95 1014 10 16 0.00 0.00
2:53 am 02:53 Clear 65 18.3 60 15.6 84 84 N 7 11 29.96 1015 10 16 0.00 0.00
3:53 am 03:53 Clear 65 18.3 60 15.6 84 84 NNW 8 13 29.93 1014 10 16 0.00 0.00
4:53 am 04:53 Clear 63 17.2 60 15.6 90 90 NNW 3 6 29.96 1014 10 16 0.00 0.00
5:53 am 05:53 Partly Cloudy 63 17.2 60 15.6 90 90 N 6 9 29.97 1015 10 16 0.00 0.00
6:00 am 06:00 Mostly Cloudy 63 17.2 60 15.6 90 90 N 7 11 29.94 1014 10 16 0.00 0.00
6:53 am 06:53 Mostly Cloudy 65 18.3 59 15 81 81 N 10 17 29.98 1015 10 16 0.00 0.00
7:03 am 07:03 Mostly Sunny 65 18.3 59 15 81 81 N 8 13 29.94 1014 10 16 0.00 0.00
7:53 am 07:53 Sunny 65 18.3 59 15 81 81 N 10 17 29.98 1015 10 16 0.00 0.00
8:53 am 08:53 Sunny 66 18.9 59 15 78 78 N 8 13 29.99 1016 10 16 0.00 0.00
9:53 am 09:53 Sunny 67 19.4 58 14.4 73 73 NNE 12 19 29.99 1016 10 16 0.00 0.00
10:53 am 10:53 Sunny 72 22.2 60 15.6 66 66 NE 9 15 29.98 1015 10 16 0.00 0.00
11:53 am 11:53 Sunny 73 22.8 61 16.1 66 66 NNE 9 15 29.98 1015 10 16 0.00 0.00
12:53 pm 12:53 Sunny 75 23.9 61 16.1 62 62 NNE 8 13 29.98 1015 10 16 0.00 0.00
1:53 pm 13:53 Sunny 78 25.6 60 15.6 54 54 NNE 9 15 29.96 1014 10 16 0.00 0.00
2:53 pm 14:53 Sunny 79 26.1 59 15 50 50 ENE 13 20 29.93 1014 10 16 0.00 0.00
3:53 pm 15:53 Sunny 80 26.7 57 13.9 45 45 NE 10 17 29.91 1013 10 16 0.00 0.00
4:53 pm 16:53 Sunny 80 26.7 55 12.8 42 42 NE 13 20 29.89 1012 10 16 0.00 0.00
5:53 pm 17:53 Sunny 80 26.7 54 12.2 41 41 ENE 14 22 29.86 1011 10 16 0.00 0.00
6:53 pm 18:53 Sunny 79 26.1 54 12.2 42 42 ENE 9 15 29.86 1011 10 16 0.00 0.00
7:53 pm 19:53 Sunny 77 25 57 13.9 50 50 E 12 19 29.85 1011 10 16 0.00 0.00
8:53 pm 20:53 Sunny 74 23.3 57 13.9 56 56 ENE 6 9 29.86 1011 10 16 0.00 0.00
9:53 pm 21:53 Clear 70 21.1 58 14.4 66 66 N 3 6 29.90 1012 10 16 0.00 0.00
10:53 pm 22:53 Clear 70 21.1 60 15.6 71 71 E 6 9 29.88 1012 10 16 0.00 0.00
11:53 pm 23:53 Clear 70 21.1 63 17.2 79 79 ENE 6 9 29.86 1011 10 16 0.00 0.00

Powered by AerisWeather